Location: Huntsville
(34.7300°N, 86.5860°W)
Time: 07:30:14
(UTC-06:00)

N. Korean satellite - Visible Passes

Search period start: 16 November 2018 00:00
Search period end: 26 November 2018 00:00
Orbit: 457 x 511 km, 97.2° (Epoch: 15 November)

Date Brightness Start Highest point End Pass type
(mag) Time Alt. Az. Time Alt. Az. Time Alt. Az.
16 Nov 9.3 05:25:01 10° NE 05:27:45 22° E 05:30:30 10° SSE visible
16 Nov 6.8 17:29:49 10° S 17:33:27 73° W 17:37:03 10° NNW visible
17 Nov 10.3 05:02:33 10° E 05:03:07 10° E 05:03:42 10° ESE visible
17 Nov 6.8 17:05:30 10° SSE 17:09:00 48° ENE 17:12:28 10° N visible
18 Nov 9.7 18:15:35 10° SW 18:17:59 17° W 18:20:24 10° NW visible
19 Nov 7.9 05:44:26 10° NNE 05:47:45 44° E 05:51:01 10° S visible
19 Nov 8.3 17:50:04 10° SSW 17:53:24 35° W 17:56:44 10° NNW visible
20 Nov 9.5 05:20:35 10° NE 05:23:09 20° E 05:25:44 10° SE visible
20 Nov 6.6 17:25:17 10° S 17:28:54 84° W 17:32:27 10° NNW visible
22 Nov 9.5 18:10:46 10° SW 18:13:22 19° W 18:15:58 10° NW visible
23 Nov 8.2 05:39:52 10° NNE 05:43:06 38° E 05:46:20 10° SSE visible
23 Nov 8.0 17:45:24 10° S 17:48:48 40° W 17:52:09 10° NNW visible
24 Nov 9.7 05:16:08 10° NE 05:18:30 17° E 05:20:52 10° SE visible
24 Nov 6.4 17:20:42 10° SSE 17:24:16 84° ENE 17:27:48 10° N visible
25 Nov 7.1 16:56:34 10° SE 16:59:49 35° ENE 17:03:03 10° N visible
